TimeEDT,TemperatureF,Dew PointF,Humidity,Sea Level PressureIn,VisibilityMPH,Wind Direction,Wind SpeedMPH,Gust SpeedMPH,PrecipitationIn,Events,Conditions,WindDirDegrees,DateUTC
12:35 AM,46.8,35.6,65,29.91,10.0,West,4.6,-,N/A,,Clear,260,2012-10-07 04:35:00
12:55 AM,46.8,36.5,67,29.92,10.0,West,3.5,-,N/A,,Clear,260,2012-10-07 04:55:00
1:15 AM,46.8,36.5,67,29.92,10.0,WSW,8.1,-,N/A,,Scattered Clouds,250,2012-10-07 05:15:00
1:35 AM,46.8,35.6,65,29.93,10.0,West,6.9,-,N/A,,Scattered Clouds,270,2012-10-07 05:35:00
2:15 AM,46.8,36.3,67,29.94,10.0,West,9.2,-,N/A,,Scattered Clouds,270,2012-10-07 06:15:00
2:35 AM,46.8,36.7,68,29.94,10.0,West,8.1,-,N/A,,Scattered Clouds,270,2012-10-07 06:35:00
2:55 AM,46.8,36.5,67,29.94,10.0,West,8.1,17.3,N/A,,Clear,270,2012-10-07 06:55:00
3:15 AM,46.8,36.9,68,29.94,10.0,West,6.9,-,N/A,,Clear,270,2012-10-07 07:15:00
3:35 AM,46.4,36.5,68,29.95,10.0,WSW,3.5,-,N/A,,Clear,240,2012-10-07 07:35:00
3:55 AM,44.2,35.6,72,29.95,10.0,West,5.8,-,N/A,,Scattered Clouds,260,2012-10-07 07:55:00
4:15 AM,44.2,35.8,72,29.96,10.0,WSW,5.8,-,N/A,,Scattered Clouds,250,2012-10-07 08:15:00
4:35 AM,44.2,36.5,74,29.97,10.0,WSW,4.6,-,N/A,,Mostly Cloudy,250,2012-10-07 08:35:00
4:55 AM,44.2,36.7,75,29.98,10.0,Calm,Calm,-,N/A,,Mostly Cloudy,0,2012-10-07 08:55:00
5:15 AM,44.8,37.0,74,29.99,10.0,West,3.5,-,N/A,,Overcast,260,2012-10-07 09:15:00
5:35 AM,46.8,37.9,71,29.99,10.0,West,5.8,-,N/A,,Overcast,260,2012-10-07 09:35:00
5:55 AM,45.9,37.4,72,30.00,10.0,West,4.6,-,N/A,,Overcast,260,2012-10-07 09:55:00
6:35 AM,43.3,36.9,78,30.01,10.0,West,3.5,-,N/A,,Scattered Clouds,270,2012-10-07 10:35:00
7:15 AM,41.9,36.1,80,30.03,10.0,Calm,Calm,-,N/A,,Scattered Clouds,0,2012-10-07 11:15:00
7:35 AM,41.9,36.1,80,30.03,10.0,Calm,Calm,-,N/A,,Scattered Clouds,0,2012-10-07 11:35:00
7:55 AM,42.1,36.7,81,30.03,10.0,Calm,Calm,-,N/A,,Mostly Cloudy,0,2012-10-07 11:55:00
8:15 AM,41.9,37.4,84,30.03,10.0,Calm,Calm,-,N/A,,Overcast,0,2012-10-07 12:15:00
8:35 AM,42.1,37.8,85,30.03,10.0,Calm,Calm,-,N/A,,Mostly Cloudy,0,2012-10-07 12:35:00
8:55 AM,43.2,37.6,81,30.04,10.0,WNW,4.6,-,N/A,,Clear,300,2012-10-07 12:55:00
9:15 AM,42.6,36.3,78,30.03,10.0,Calm,Calm,-,N/A,,Mostly Cloudy,0,2012-10-07 13:15:00
9:35 AM,43.2,36.1,76,30.04,10.0,Calm,Calm,-,N/A,,Overcast,0,2012-10-07 13:35:00
9:55 AM,43.5,36.7,77,30.04,10.0,Calm,Calm,-,N/A,,Overcast,0,2012-10-07 13:55:00
10:15 AM,44.2,36.9,75,30.04,10.0,Calm,Calm,-,N/A,,Mostly Cloudy,0,2012-10-07 14:15:00
10:35 AM,45.7,36.7,71,30.04,10.0,Calm,Calm,-,N/A,,Mostly Cloudy,0,2012-10-07 14:35:00
10:55 AM,46.8,35.6,65,30.04,10.0,West,3.5,-,N/A,,Mostly Cloudy,280,2012-10-07 14:55:00
11:15 AM,46.8,36.7,68,30.05,10.0,WSW,3.5,-,N/A,,Overcast,250,2012-10-07 15:15:00
11:35 AM,46.8,36.1,67,30.05,10.0,West,3.5,-,N/A,,Overcast,270,2012-10-07 15:35:00
11:55 AM,46.8,34.9,63,30.05,10.0,West,5.8,-,N/A,,Overcast,270,2012-10-07 15:55:00
12:15 PM,47.7,34.0,59,30.05,10.0,SW,3.5,-,N/A,,Mostly Cloudy,230,2012-10-07 16:15:00
12:35 PM,46.8,34.9,63,30.06,10.0,West,4.6,-,N/A,,Scattered Clouds,270,2012-10-07 16:35:00
12:55 PM,47.1,34.2,61,30.06,10.0,West,5.8,-,N/A,,Mostly Cloudy,260,2012-10-07 16:55:00
1:15 PM,49.3,35.4,59,30.05,10.0,West,4.6,-,N/A,,Mostly Cloudy,260,2012-10-07 17:15:00
1:35 PM,48.2,34.3,59,30.05,10.0,Calm,Calm,-,N/A,,Overcast,0,2012-10-07 17:35:00
1:55 PM,49.3,35.2,58,30.04,10.0,Calm,Calm,-,N/A,,Overcast,0,2012-10-07 17:55:00
2:15 PM,49.5,35.1,58,30.04,10.0,WSW,4.6,-,N/A,,Overcast,240,2012-10-07 18:15:00
2:35 PM,49.3,34.9,58,30.04,10.0,SW,4.6,-,N/A,,Overcast,230,2012-10-07 18:35:00
2:55 PM,48.6,34.3,58,30.03,10.0,Calm,Calm,-,N/A,,Overcast,0,2012-10-07 18:55:00
3:15 PM,49.3,35.2,58,30.03,10.0,Calm,Calm,-,N/A,,Overcast,0,2012-10-07 19:15:00
3:55 PM,49.3,34.5,57,30.03,10.0,Calm,Calm,-,N/A,,Overcast,0,2012-10-07 19:55:00
4:15 PM,48.2,34.5,59,30.03,10.0,Calm,Calm,-,N/A,,Overcast,0,2012-10-07 20:15:00
4:35 PM,48.2,34.3,59,30.02,10.0,Calm,Calm,-,N/A,,Overcast,0,2012-10-07 20:35:00
4:55 PM,49.3,33.6,55,30.02,10.0,Calm,Calm,-,N/A,,Mostly Cloudy,0,2012-10-07 20:55:00
5:15 PM,48.4,33.8,57,30.01,10.0,Calm,Calm,-,N/A,,Clear,0,2012-10-07 21:15:00
5:35 PM,48.6,34.5,58,30.01,10.0,Calm,Calm,-,N/A,,Clear,0,2012-10-07 21:35:00
5:55 PM,46.8,38.5,73,30.01,10.0,Calm,Calm,-,N/A,,Clear,0,2012-10-07 21:55:00
6:15 PM,46.8,39.2,75,30.02,10.0,Calm,Calm,-,N/A,,Clear,0,2012-10-07 22:15:00
6:35 PM,46.8,40.5,79,30.02,10.0,Calm,Calm,-,N/A,,Scattered Clouds,0,2012-10-07 22:35:00
6:55 PM,44.2,38.8,81,30.02,10.0,Calm,Calm,-,N/A,,Scattered Clouds,0,2012-10-07 22:55:00
7:15 PM,43.0,39.0,86,30.01,10.0,Calm,Calm,-,N/A,,Scattered Clouds,0,2012-10-07 23:15:00
7:35 PM,41.9,38.7,88,30.02,10.0,Calm,Calm,-,N/A,,Mostly Cloudy,0,2012-10-07 23:35:00
7:55 PM,43.3,39.2,85,30.03,10.0,Calm,Calm,-,N/A,,Overcast,0,2012-10-07 23:55:00
8:15 PM,42.8,38.7,85,30.03,10.0,Calm,Calm,-,N/A,,Overcast,0,2012-10-08 00:15:00
8:35 PM,41.9,37.8,85,30.03,10.0,Calm,Calm,-,N/A,,Overcast,0,2012-10-08 00:35:00
8:55 PM,41.9,36.7,82,30.04,10.0,Calm,Calm,-,N/A,,Overcast,0,2012-10-08 00:55:00
9:15 PM,41.9,37.8,85,30.05,10.0,Calm,Calm,-,N/A,,Overcast,0,2012-10-08 01:15:00
9:35 PM,43.0,38.5,84,30.06,10.0,Calm,Calm,-,N/A,,Overcast,0,2012-10-08 01:35:00
9:55 PM,44.1,39.2,83,30.05,10.0,Calm,Calm,-,N/A,,Light Drizzle,0,2012-10-08 01:55:00
10:15 PM,41.9,37.8,85,30.06,10.0,Calm,Calm,-,N/A,,Drizzle,0,2012-10-08 02:15:00
10:35 PM,42.3,35.4,77,30.07,10.0,Calm,Calm,-,N/A,,Drizzle,0,2012-10-08 02:35:00
10:55 PM,40.6,36.7,86,30.07,10.0,Calm,Calm,-,N/A,,Drizzle,0,2012-10-08 02:55:00
11:15 PM,40.6,37.4,88,30.07,10.0,Calm,Calm,-,N/A,,Light Drizzle,0,2012-10-08 03:15:00
11:35 PM,40.5,37.6,89,30.06,10.0,Calm,Calm,-,N/A,,Overcast,0,2012-10-08 03:35:00
11:55 PM,40.6,38.1,91,30.07,10.0,Calm,Calm,-,N/A,,Drizzle,0,2012-10-08 03:55:00